Change the Weather History Date:

Tuesday, April 15, 2014

  Actual Average Record
Temperature  
Mean Temperature 48 °F 48 °F  
Max Temperature 66 °F 58 °F 86 °F (2003)
Min Temperature 29 °F 37 °F 21 °F (1940)
Degree Days  
Heating Degree Days 17 17  
Month to date heating degree days 255 304  
Since 1 July heating degree days 6519 6177  
Cooling Degree Days 0 0  
Month to date cooling degree days 6 0  
Year to date cooling degree days 6 0  
Moisture  
Dew Point 41 °F    
Average Humidity 75    
Maximum Humidity 92    
Minimum Humidity 58    
Precipitation  
Precipitation 0.72 in 0.10 in 2.26 in (2007)
Month to date precipitation 1.05 1.62  
Year to date precipitation 9.56 9.62  
Snow  
Snow 2.40 in 0.00 in 2.00 in (1905)
Month to date snowfall 2.4 1.6  
Since 1 July snowfall 73.5 58.3  
Snow Depth 0.00 in    
Sea Level Pressure  
Sea Level Pressure 29.74 in    
Wind  
Wind Speed 17 mph (West)    
Max Wind Speed 29 mph    
Max Gust Speed 38 mph    
Visibility 5 miles    
Events Fog , Rain , Snow    
T = Trace of Precipitation, MM = Missing Value Source: NWS Daily Summary

Daily Weather History Graph

Daily Weather History Graph

Search for Another Location

Airport or City:

Trip Planner

Search our weather history database for the weather conditions in past years. The results will help you decide how hot, cold, wet, or windy it might be!

Date:

Astronomy

Apr. 15, 2014 Rise Set
Actual Time 6:13 AM EDT 7:37 PM EDT
Civil Twilight 5:44 AM EDT 8:06 PM EDT
Nautical Twilight 5:09 AM EDT 8:42 PM EDT
Astronomical Twilight 4:31 AM EDT 9:20 PM EDT
Moon 8:16 PM EDT (4/15) 6:19 AM EDT (4/15)
Length of Visible Light 14h 22m
Length of Day
13h 23m
Full, 100% of the Moon is Illuminated
Apr 15
Full
Apr 22
Last Quarter
Apr 29
New
May 6
First Quarter
May 14
Full

Hourly Weather History & Observations

Time (EDT) Temp. Windchill Dew Point Humidity Pressure Visibility Wind Dir Wind Speed Gust Speed Precip Events Conditions
12:51 AM 66.0 °F - 52.0 °F 60% 29.75 in 10.0 mi South 19.6 mph 29.9 mph N/A   Overcast
1:51 AM 64.4 °F - 53.6 °F 68% 29.74 in 10.0 mi South 17.3 mph 27.6 mph N/A   Overcast
2:51 AM 64.0 °F - 53.1 °F 67% 29.71 in 10.0 mi SSE 16.1 mph 21.9 mph 0.00 in   Overcast
3:51 AM 64.0 °F - 54.0 °F 70% 29.70 in 10.0 mi South 15.0 mph 28.8 mph N/A   Overcast
4:51 AM 64.0 °F - 54.0 °F 70% 29.68 in 10.0 mi South 18.4 mph 29.9 mph 0.00 in   Overcast
5:51 AM 64.0 °F - 55.0 °F 73% 29.66 in 10.0 mi South 19.6 mph 26.5 mph N/A   Overcast
6:51 AM 64.0 °F - 55.0 °F 73% 29.65 in 10.0 mi SSE 17.3 mph 26.5 mph N/A   Overcast
7:26 AM 64.0 °F - 55.9 °F 75% 29.63 in 10.0 mi SSE 16.1 mph 23.0 mph 0.00 in   Overcast
7:51 AM 63.0 °F - 57.0 °F 81% 29.64 in 10.0 mi South 19.6 mph 29.9 mph 0.00 in   Overcast
8:43 AM 62.1 °F - 57.0 °F 84% 29.61 in 10.0 mi South 15.0 mph 27.6 mph N/A   Overcast
8:51 AM 62.1 °F - 57.9 °F 86% 29.60 in 8.0 mi South 18.4 mph 25.3 mph 0.00 in Rain Light Rain
9:51 AM 63.0 °F - 57.9 °F 84% 29.58 in 9.0 mi SSE 17.3 mph 25.3 mph 0.00 in   Overcast
10:51 AM 64.9 °F - 59.0 °F 81% 29.53 in 10.0 mi South 17.3 mph 24.2 mph 0.00 in Rain Light Rain
11:51 AM 66.0 °F - 57.9 °F 75% 29.49 in 9.0 mi SSE 17.3 mph 32.2 mph 0.00 in Rain Light Rain
12:51 PM 64.4 °F - 60.8 °F 88% 29.46 in 4.0 mi South 21.9 mph 31.1 mph N/A Rain Rain
12:58 PM 64.0 °F - 60.1 °F 87% 29.48 in 1.8 mi South 23.0 mph 36.8 mph 0.02 in Rain Heavy Rain
1:16 PM 63.0 °F - 60.1 °F 90% 29.49 in 2.0 mi SSW 16.1 mph 33.4 mph 0.16 in Rain Rain
1:33 PM 64.0 °F - 60.1 °F 87% 29.48 in 5.0 mi South 12.7 mph - 0.19 in Rain Light Rain
1:51 PM 57.2 °F - 53.6 °F 88% 29.50 in 5.0 mi WNW 21.9 mph 26.5 mph N/A Rain Light Rain
2:04 PM 50.0 °F - 46.0 °F 86% 29.51 in 6.0 mi West 25.3 mph 29.9 mph 0.00 in Rain Light Rain
2:51 PM 45.0 °F 38.9 °F 39.9 °F 82% 29.57 in 7.0 mi WNW 12.7 mph 20.7 mph 0.07 in Rain Light Rain
3:33 PM 43.0 °F 36.4 °F 37.9 °F 82% 29.61 in 8.0 mi WNW 12.7 mph 20.7 mph 0.05 in Rain Light Rain
3:51 PM 42.8 °F 34.5 °F 37.4 °F 81% 29.62 in 10.0 mi West 18.4 mph 29.9 mph N/A Rain Light Rain
4:41 PM 41.0 °F 34.3 °F 35.1 °F 79% 29.68 in 8.0 mi WNW 11.5 mph 20.7 mph 0.00 in Rain Light Rain
4:51 PM 41.0 °F 35.8 °F 35.1 °F 79% 29.69 in 3.0 mi WNW 8.1 mph 20.7 mph 0.01 in Rain Light Rain
5:32 PM 39.0 °F 31.4 °F 33.1 °F 79% 29.73 in 3.0 mi WNW 12.7 mph 23.0 mph 0.04 in Rain Rain
5:51 PM 37.9 °F 30.5 °F 33.1 °F 83% 29.76 in 3.0 mi West 11.5 mph 19.6 mph 0.09 in Rain Rain
6:18 PM 36.0 °F 27.1 °F 30.9 °F 82% 29.78 in 3.0 mi WNW 13.8 mph - 0.03 in Snow Light Snow
6:32 PM 35.1 °F 24.8 °F 30.9 °F 85% 29.79 in 3.0 mi WNW 17.3 mph 26.5 mph 0.04 in Snow Light Snow
6:51 PM 35.1 °F 24.5 °F 30.0 °F 82% 29.79 in 2.5 mi WNW 18.4 mph 26.5 mph 0.04 in Snow Light Snow
6:55 PM 35.1 °F 25.5 °F 30.0 °F 82% 29.78 in 2.5 mi WNW 15.0 mph 26.5 mph 0.01 in Snow Light Snow
7:13 PM 34.0 °F 22.7 °F 28.9 °F 82% 29.80 in 2.5 mi WNW 19.6 mph 28.8 mph 0.01 in Snow Light Snow
7:51 PM 33.1 °F 23.9 °F 30.0 °F 89% 29.83 in 1.2 mi WNW 12.7 mph - 0.03 in Snow Light Snow
7:57 PM 33.1 °F 23.4 °F 30.0 °F 89% 29.83 in 1.2 mi WNW 13.8 mph 20.7 mph 0.00 in Snow Light Snow
8:05 PM 33.1 °F 21.9 °F 28.9 °F 85% 29.85 in 1.2 mi WNW 18.4 mph 25.3 mph 0.02 in Snow Light Snow
8:42 PM 32.0 °F 21.6 °F 28.0 °F 85% 29.90 in 2.5 mi West 15.0 mph - 0.04 in Snow Light Snow
8:51 PM 32.0 °F 22.1 °F 28.0 °F 85% 29.90 in 2.0 mi WNW 13.8 mph - 0.05 in Snow Light Snow
9:02 PM 32.0 °F 20.8 °F 28.0 °F 85% 29.89 in 0.8 mi WNW 17.3 mph 27.6 mph 0.00 in Snow Light Snow
9:14 PM 30.9 °F 20.2 °F 28.0 °F 89% 29.90 in 0.5 mi WNW 15.0 mph 25.3 mph 0.01 in Fog , Snow Snow
9:30 PM 30.9 °F 20.7 °F 27.0 °F 85% 29.92 in 0.8 mi WNW 13.8 mph 26.5 mph 0.03 in Snow Light Snow
9:37 PM 30.9 °F 19.1 °F 27.0 °F 85% 29.89 in 1.2 mi WNW 18.4 mph - 0.03 in Snow Light Snow
9:44 PM 30.9 °F 19.8 °F 27.0 °F 85% 29.91 in 1.2 mi WNW 16.1 mph - 0.03 in Snow Light Snow
9:51 PM 30.9 °F 20.2 °F 27.0 °F 85% 29.94 in 1.0 mi WNW 15.0 mph 23.0 mph 0.03 in Snow Light Snow
10:13 PM 30.0 °F 19.1 °F 27.0 °F 88% 29.92 in 0.8 mi WNW 15.0 mph 20.7 mph 0.02 in Snow Light Snow
10:33 PM 30.0 °F 17.5 °F 26.1 °F 85% 29.95 in 0.5 mi WNW 19.6 mph 26.5 mph 0.03 in Fog , Snow Snow
10:51 PM 28.9 °F 16.5 °F 26.1 °F 89% 29.98 in 0.5 mi WNW 18.4 mph - 0.05 in Fog , Snow Snow
11:15 PM 28.9 °F 18.2 °F 26.1 °F 89% 29.94 in 0.1 mi WNW 13.8 mph 26.5 mph 0.02 in Fog , Snow Snow
11:48 PM 28.4 °F 17.0 °F 24.8 °F 86% 29.96 in 0.5 mi WNW 15.0 mph 24.2 mph 0.05 in Fog , Snow Snow
11:51 PM 28.9 °F 17.7 °F 25.0 °F 85% 29.96 in 0.5 mi WNW 15.0 mph 24.2 mph 0.05 in Snow Light Snow
11:55 PM 28.9 °F 18.2 °F 25.0 °F 85% 29.95 in 1.0 mi WNW 13.8 mph - 0.00 in Snow Light Snow
11:58 PM 28.9 °F 19.2 °F 25.0 °F 85% 29.95 in 3.0 mi WNW 11.5 mph - 0.00 in Snow Light Snow